Regional Weather Roundup
Issued by NWS

Home | Current Version | Previous Version | Text Only | Print | Product List | Glossary Off
Versions: 1 2 3 4 5 6 7 8 9 10 11 12 13 14 15 16 17 18 19 20 21 22 23 24 25 26 27 28 29 30 31 32 33 34 35 36 37 38 39 40 41 42 43 44 45 46 47 48 49 50

000
ASUS43 KIND 270109
RWRIN

WEATHER ROUNDUP FOR INDIANA
NATIONAL WEATHER SERVICE INDIANAPOLIS IN
900 PM EDT MON SEP 26 2016

NOTE: "FAIR" INDICATES FEW OR NO CLOUDS BELOW 12,000 FEET WITH NO
SIGNIFICANT WEATHER AND/OR OBSTRUCTIONS TO VISIBILITY.

* - STATION DOES NOT REPORT WEATHER SUCH AS PRECIPITATION OR FOG.

+ - STATION NOT QUALITY CONTROLLED BY THE NATIONAL WEATHER SERVICE.
    USE DATA WITH CAUTION...ESPECIALLY DEWPOINT AND RELATIVE
    HUMIDITY OBSERVATIONS.

INZ001>003-010>013-019-020-270200-
NORTHWEST INDIANA

CITY           SKY/WX    TMP DP  RH WIND       PRES   REMARKS
GARY /AIRPORT/ CLEAR     64  32  29 W10G28    29.96R
KNOX *+        CLEAR     59   9  13 W7        29.96R
LA PORTE +     CLEAR     58  39  50 SW6       29.96S
MICHIGAN CITY+ CLEAR     63  37  39 MISG      29.96R
MONTICELLO +   CLEAR     60  30  32 W7        29.98R
RENSSELAER +   CLEAR     57  36  44 SW6       29.99R
VALPARAISO     CLEAR     58  39  49 SW9       29.97R

$$

LMZ046-743>745-270200-
SOUTHERN LAKE MICHIGAN

STATION/POSITION TIME  TEMP    WIND        PRES    WAVE
                       AIR SEA DIR/SP/G            HT
                 (UTC) (F)     (DEG/KT/KT) (MB)    (FT)
BURNS HARBOR     0003   67     260/ 22     1014.2R
MICHIGAN CITY    0000   67     240/ 21/ 25   N/A
5NW MICH CITY    0100   68 67  280/ 19/ 25   N/A     6

$$

INZ004-005-014>016-021>024-270200-
NORTH CENTRAL INDIANA

CITY           SKY/WX    TMP DP  RH WIND       PRES   REMARKS
ELKHART        CLEAR    N/A N/A N/A W6          N/A
GOSHEN         CLEAR     57  38  48 SW7       29.95R
LOGANSPORT +   CLEAR     54  41  62 SW5       29.99R
PERU/GRISSOM   CLEAR     60  38  44 SW8       29.97R
ROCHESTER +    CLEAR     61  37  41 SW5       29.98R
SOUTH BEND     CLEAR     55  42  61 SW7       29.95R
WARSAW +       CLEAR     55  32  41 SW5       29.96R

$$

INZ006>009-017-018-025>027-270200-
NORTHEAST INDIANA

CITY           SKY/WX    TMP DP  RH WIND       PRES   REMARKS
ANGOLA *+        N/A     54  43  66 CALM      29.95R
AUBURN +       CLEAR     59  36  41 SW5       29.97R
FORT WAYNE     CLEAR     56  41  57 SW7       29.97R
HUNTINGTON +   CLEAR     56  40  54 SW5       29.97S
KENDALLVILLE + CLEAR     55  40  57 SW6       29.96R

$$

INZ028-029-035-036-043>045-051>053-270200-
WEST CENTRAL INDIANA

CITY           SKY/WX    TMP DP  RH WIND       PRES   REMARKS
CRAWFORDSVL +  CLEAR     53  44  72 SW6       30.02S
GREENCASTLE +  CLEAR     54  52  94 CALM      30.04S
LAFAYETTE      CLEAR     55  44  66 SW3       30.00R
TERRE HAUTE    CLEAR     60  41  49 SW6       30.04R

$$

INZ030>032-037>040-046>048-054>057-064-065-270200-
CENTRAL INDIANA

CITY           SKY/WX    TMP DP  RH WIND       PRES   REMARKS
COLUMBUS       CLEAR     57  54  88 SW7       30.05R
FRANKFORT +    MOCLDY    57  41  54 W7        30.03R
GREENWOOD *+   CLEAR     59  48  67 SW5       30.04R
INDIANAPOLIS   CLEAR     58  44  60 SW8       30.02R
-EAGLE CREEK   CLEAR     62  41  46 SW5       30.02R
MARION +       CLEAR     59  38  45 SW7       30.00R
MT COMFORT *+  CLEAR     55  45  67 S5        30.03R
SHELBYVILLE    CLEAR     59  49  69 S7        30.03R
ZIONSVILLE +   CLEAR     52  44  75 SW7       30.03R

$$

INZ033-034-041-042-049-050-058-059-270200-
EAST CENTRAL INDIANA

CITY           SKY/WX    TMP DP  RH WIND       PRES   REMARKS
MUNCIE         CLEAR     61  41  47 SW6       30.01R

$$

INZ060-061-067>069-081>083-085>088-270200-
SOUTHWEST INDIANA

CITY           SKY/WX    TMP DP  RH WIND       PRES   REMARKS
EVANSVILLE     CLEAR     61  51  70 CALM      30.09R
HUNTINGBURG *+   N/A     57  48  72 S3        30.08R
WASHINGTON +   CLEAR     56  50  80 MISG      30.06R

$$

INZ062-063-066-070>080-084-089>092-270200-
SOUTH CENTRAL AND SOUTHEAST INDIANA

CITY           SKY/WX    TMP DP  RH WIND       PRES   REMARKS
BLOOMINGTON    CLEAR     54  50  86 SW3       30.05R
MADISON *+     CLEAR     55  52  88 CALM      30.09R
NORTH VERNON + CLEAR    N/A N/A N/A CALM      30.06
SEYMOUR +      CLEAR     55  50  82 CALM      30.06R

$$




USA.gov is the U.S. government's official web portal to all federal, state and local government web resources and services.